Regional Weather Roundup
Issued by NWS

Home | Current Version | Previous Version | Text Only | Print | Product List | Glossary Off
Versions: 1 2 3 4 5 6 7 8 9 10 11 12 13 14 15 16 17 18 19 20 21 22 23 24 25 26 27 28 29 30 31 32 33 34 35 36 37 38 39 40 41 42 43 44 45 46 47 48 49 50

000
ASUS43 KMKX 191021
RWRWI

WISCONSIN REGIONAL WEATHER ROUNDUP
NATIONAL WEATHER SERVICE MILWAUKEE/SULLIVAN WI
400 AM CST SUN NOV 19 2017

NOTE: "FAIR" INDICATES FEW OR NO CLOUDS BELOW 12,000 FEET WITH NO
SIGNIFICANT WEATHER AND/OR OBSTRUCTIONS TO VISIBILITY.

WIZ001-002-006>008-014>016-023>028-191100-
NORTHWEST WISCONSIN

CITY           SKY/WX    TMP DP  RH WIND       PRES   REMARKS
SUPERIOR ARPT  CLEAR     15   8  74 W9        30.01S WCI   3
ASHLAND        CLOUDY    19  11  70 W10       29.97R WCI   7
HAYWARD        PTCLDY    15   8  73 W7        29.98R WCI   5
SIREN          CLEAR     15  10  79 W6        30.03S WCI   6
CUMBERLAND     CLEAR     16   9  73 NW10      30.00R WCI   3
RICE LAKE      CLEAR     17  10  76 W9        30.03R WCI   5
CHETEK         CLEAR     17  10  74 NW7       30.01S WCI   7
LADYSMITH      PTCLDY    18  11  76 NW9       29.98S WCI   6
EAU CLAIRE     CLEAR     17  11  77 W9        30.02S WCI   6
MENOMONIE      CLEAR     18  11  73 W9        30.04S WCI   7
NEW RICHMOND   CLEAR     16  10  75 W8        30.04F WCI   5
OSCEOLA        CLEAR     17  11  76 W7        30.08S WCI   8
$$

WIZ003>005-009-010-017-018-191100-
NORTH CENTRAL WISCONSIN

CITY           SKY/WX    TMP DP  RH WIND       PRES   REMARKS
MANITOWISH WTR FLURRIES  16  12  84 NW8       29.88S WCI   5
ARBOR VITAE    FLURRIES  19  14  81 NW9       29.87F WCI   8
WOODRUFF       FLURRIES  19  14  81 NW9       29.87F WCI   8
RHINELANDER    LGT SNOW   1  32 100 NW9       29.88R WCI -14
EAGLE RIVER    FLURRIES  18  12  79 W13       29.85S WCI   4
LAND O LAKES   LGT SNOW  18  15  86 W6        29.86S WCI  10
PHILLIPS       CLOUDY    16   9  74 NW7       29.91S WCI   6
TOMAHAWK       FLURRIES  18  11  73 W8        29.90S WCI   8
MEDFORD        CLOUDY    19  12  74 NW15      29.91F WCI   4
MERRILL        CLOUDY    20  11  68 NW15G21   29.91S WCI   6
$$

WIZ029-030-035-036-043>047-191100-
CENTRAL WISCONSIN

CITY           SKY/WX    TMP DP  RH WIND       PRES   REMARKS
WAUSAU         CLOUDY    22  13  68 NW15      29.90R WCI   9
MOSINEE        CLOUDY    21  12  68 W20       29.92  WCI   6
MARSHFIELD     CLOUDY    20  12  71 NW16      29.93R WCI   6
STEVENS POINT  CLOUDY    22  11  63 W13G20    29.93R WCI   9
WAUPACA        CLOUDY    29  16  57 W8        29.92R WCI  21
WAUTOMA        CLOUDY    25  15  66 NW10G20   29.94R WCI  15
WISC RAPIDS    CLOUDY    23  13  65 NW14      29.95R WCI  11
CAMP DOUGLAS   CLOUDY   N/A N/A N/A W16G24    29.98R
$$

WIZ011>013-019>022-031-037>040-048>050-191100-
NORTHEAST WISCONSIN

CITY           SKY/WX    TMP DP  RH WIND       PRES   REMARKS
ANTIGO         FLURRIES  21  15  78 NW14G22   29.87R WCI   8
SHAWANO        CLOUDY    28  14  57 NW13G21   29.90R WCI  17
OCONTO         CLOUDY    28  17  63 NW7       29.87R WCI  21
STURGEON BAY   FLURRIES  29  20  69 NW13      29.84S WCI  19
GREEN BAY      CLOUDY    28  17  63 NW21G26   29.88R WCI  15
MANITOWOC      CLOUDY    28  19  69 NW16      29.87R WCI  17
APPLETON       CLOUDY    28  14  54 NW13G23   29.88R WCI  18
CLINTONVILLE   CLOUDY    27  14  59 NW10G16   29.89S WCI  17
OSHKOSH        CLOUDY    28  16  60 NW15G22   29.89R WCI  16
$$

WIZ032>034-041-042-053>061-191100-
SOUTHWEST WISCONSIN

CITY           SKY/WX    TMP DP  RH WIND       PRES   REMARKS
LA CROSSE      PTCLDY    23  13  65 NW16G25   30.04S WCI  10
SPARTA         CLOUDY    22  15  74 NW8       30.02R WCI  13
VIROQUA        PTCLDY    20  16  84 NW13      29.98S WCI   7
BOSCOBEL       PTCLDY    24  14  65 W13G21    30.04R WCI  12
PRAIRIE DU CHI CLEAR     23  14  68 W12       30.04F WCI  12
PLATTEVILLE    PTCLDY    24  19  78 NW13      30.00R WCI  13
$$

WIZ056-057-062-063-064-067-068-191100-
SOUTH CENTRAL WISCONSIN

CITY           SKY/WX    TMP DP  RH WIND       PRES   REMARKS
REEDSBURG      MOCLDY    24  15  68 NW10G18   29.96S WCI  13
BARABOO/DELLS  MOCLDY    24  15  67 NW9       29.95R WCI  15
LONE ROCK      MOCLDY    27  18  69 NW14      29.99R WCI  16
MINERAL POINT  PTCLDY    27  21  80 W13G18    29.96R WCI  16
MADISON        PTCLDY    25  15  66 NW10G25   29.95R WCI  15
MIDDLETON      MOCLDY    27  19  72 NW8       29.95R WCI  19
WATERTOWN      CLOUDY    28  18  67 NW12G17   29.91S WCI  17
MONROE         CLOUDY    27  19  74 NW8       29.92F WCI  18
JANESVILLE     CLOUDY    30  19  64 NW15G24   29.94S WCI  19
$$

WIZ051-052-058>065-066-070>072-191100-
SOUTHEAST WISCONSIN

CITY           SKY/WX    TMP DP  RH WIND       PRES   REMARKS
MILWAUKEE      CLOUDY    32  19  58 NW17G25   29.90R WCI  21
WAUKESHA       CLOUDY    28  19  69 NW20      29.90S WCI  15
MILWAUKEE/TIMM CLOUDY    30  18  59 NW21G30   29.90R WCI  17
RACINE         CLOUDY    32  19  58 NW13G28   29.91R WCI  22
BURLINGTON     CLOUDY    32  25  75 NW17      29.92R WCI  20
KENOSHA        CLOUDY    32  21  64 NW13      29.90R WCI  22
FOND DU LAC    CLOUDY    28  16  60 NW15      29.90S WCI  16
SHEBOYGAN      CLOUDY    29  20  69 NW13      29.88R WCI  19
WEST BEND      CLOUDY    28  18  64 NW10G24   29.88S WCI  19
JUNEAU         CLOUDY    27  18  68 W8        29.92R WCI  19
$$

LSZ147-162-191100-
LAKE SUPERIOR

STATION/POSITION TIME  TEMP    WIND        PRES    WAVE
                       AIR SEA DIR/SP/G            HT/PER
                 (UTC) (F)     (DEG/KT/KT) (MB)    (FT/S)
DEVILS ISLAND    1000   20     270/ 14/ 18 1015.3S
SAXON HARBOR     0930   21     270/  7/ 13 1014.2R
$$

LMZ867-665-643>646-191100-
LAKE MICHIGAN

STATION/POSITION TIME  TEMP    WIND        PRES    WAVE
                       AIR SEA DIR/SP/G            HT/PER
                 (UTC) (F)     (DEG/KT/KT) (MB)    (FT/S)
N MID LAKE BUOY  0950   32 48  290/ 25/ 31 1009.1R   5/ 5
NORTHPORT PIER   1008   31     320/ 22     1009.8
SHEBOYGAN LAKESH 1000   30     300/ 16/ 19 1012.3R
PORT WASHINGTON  0930   31     310/ 12/ 23 1013.2R
MILWAUKEE LAKESH 1000   32     310/ 12/ 15   N/A
S MID LAKE BUOY  0950   36 49  340/ 21/ 27 1011.3R   7/ 8
KENOSHA   LAKESH 1000   32     300/ 18/ 24 1012.5
$$

TC  - TEMPERATURE IN CELSIUS
VSB - VISIBILITY IN STATUTE MILES
WCI - WIND CHILL INDEX
HX  - HEAT INDEX





USA.gov is the U.S. government's official web portal to all federal, state and local government web resources and services.